Paul Wiegert (Canada-France-Hawaii Telescope at Mauna Kea)
軌道要素
Epoch 2006 Aug. 13.0 TT = JDT 2453960.5
T 2006 Aug. 2.02742 TT MPCW
q 3.1067681 (2000.0) P Q
n 0.10618597 Peri. 352.38863 +0.10559713 +0.97077841
a 4.4166328 Node 283.48845 -0.90027900 +0.00129690
e 0.2965754 Incl. 12.80353 -0.42231146 +0.23997416
P 9.28
From 47 observations 1998 Oct. 18-2016 Aug. 30, mean residual 0".5.